Simultaneous Nadir Overpasses (SNOs) Predictions

Prediction of SNOs between LANDSAT-8 and METOP-B Satellite Orbit:

Table of predicted SNOs for the next 14.0 days since TLE Epoch: 2/13/2016
Index Date (LANDSAT-8) Time (LANDSAT-8) Lat,Lon (LANDSAT-8) SZA (LANDSAT-8 ) Date (METOP-B) Time (METOP-B) Lat,Lon (METOP-B) SZA (METOP-B ) Distance(km) Time Diff (sec)
1 02/15/2016 21:31:48 81.20,-102.12 95.55 02/15/2016 21:31:42 81.21,-101.95 95.57 3.14 6
2 02/15/2016 22:21:14 -81.22, 65.82 84.43 02/15/2016 22:22:22 -81.21, 65.63 84.42 3.31 68
3 02/18/2016 16:16:35 -81.19, 156.64 85.42 02/18/2016 16:15:23 -81.19, 156.66 85.45 0.53 72
4 02/18/2016 17:06:01 81.20, -35.68 94.58 02/18/2016 17:06:03 81.20, -35.69 94.58 0.52 2
5 02/18/2016 17:54:56 -81.72, 144.55 83.79 02/18/2016 17:56:10 -81.38, 144.82 83.96 38.76 74
6
